Location: Unspecified
(0.0000°N, 0.0000°E)
Time: 17:51:48
(UTC+00:00)

STARLINK 1008 - Pass Details

Date: 18 January 2020
Orbit: 347 x 352 km, 53.0° (Epoch: 17 January)

Event Time Altitude Azimuth Distance (km) Brightness Sun altitude
Exits shadow 04:16:01 - 177° (S) 1,865 6.7 -26.6°
Reaches altitude 10° 04:18:13 10° 148° (SSE) 1,299 6.2 -26.0°
Maximum altitude 04:19:20 12° 125° (SE) 1,204 6.3 -25.8°
Drops below altitude 10° 04:20:28 10° 102° (ESE) 1,296 6.5 -25.5°
Sets 04:23:27 0° 67° (ENE) 2,133 7.3 -24.8°
